Powrót do katalogu

DELTA 1 DEB

AktywnyLEO
NORAD 7182·DEBRIS·🇺🇸 United States

Wystrzelony Nov 6, 1973 z Vandenberg Space Force Base

Loading…

Następne Przeloty (najbliższe 24 godziny)

TLE

ŚwieżeSource: Space-Track

Epoka: Sep 13, 2026, 23:46 UTC

1 07182U 73086ET  26256.99096146  .00000195  00000-0  89072-3 0  9991
2 07182 102.5361  71.5515 0334276  60.7950  89.5679 12.77401704699263

Śledź DELTA 1 DEB w czasie rzeczywistym z AllMySat

Download on the App Store